[[{"header":{"parameterUnit":"m.s-1","parameterCategory":1,"la1":30.2991,"la2":30.254,"lo1":-89.0895,"lo2":-89.0444,"dy":0.0017,"dx":0.0017,"nx":28,"ny":28,"refTime":"2025-01-01T03:00:00:Z","depth":0,"parameterNumber":2,"parameterNumberName":"U-component_of_WINDS"},"data":[0,0,0,0,0,0,0,0,0,0,0,0,0,0,0,0,0,0,0,0,0,0,0,0,0,0,0,0,0,0,0,0,0,0,0,0,0,0,0,0,0,0,0,0,0,0,0,0,0,0,0,0,0,0,0,0,0,0,-0.696,-0.696,0,-0.6992,-0.6992,-0.6993,-0.6961,-0.696,-0.6958,-0.6957,-0.6992,-0.6994,-0.6996,0,0,0,0,0,0,0,0,0,0,0,0,0,-0.6872,-0.6873,-0.696,-0.696,-0.696,-0.6992,-0.6992,-0.6993,-0.6961,-0.696,-0.6958,-0.6957,-0.6991,-0.6994,-0.6996,0,0,0,0,0,0,0,0,0,0,0,0,0,-0.6907,-0.6874,-0.696,-0.6948,-0.6948,-0.6992,-0.6992,-0.6993,-0.6961,-0.6959,-0.6958,-0.6956,-0.699,-0.6993,-0.6997,-0.7054,0,0,-0.7006,-0.7008,0,0,0,0,0,0,0,0,-0.6905,-0.6911,-0.695,-0.6949,-0.6949,-0.697,-0.6974,-0.7013,-0.6962,-0.6956,-0.6957,-0.6955,-0.6986,-0.699,-0.7,-0.7055,-0.7057,-0.7006,-0.7008,-0.701,-0.7011,0,0,0,0,0,0,0,-0.6903,-0.6909,-0.6972,-0.695,-0.695,-0.6942,-0.6945,-0.6981,-0.6982,-0.6957,-0.6954,-0.6958,-0.6986,-0.6997,-0.7001,-0.7057,-0.7006,-0.7009,-0.7011,-0.7012,-0.7161,-0.7163,0,0,0,0,0,0,-0.6902,-0.6907,-0.6971,-0.6973,-0.6922,-0.6945,-0.6948,-0.6965,-0.6981,-0.6982,-0.696,-0.6957,-0.6993,-0.6997,-0.7002,-0.707,-0.701,-0.7013,-0.7014,-0.7159,-0.7161,-0.7163,0,0,0,0,0,0,-0.69,-0.6908,-0.697,-0.694,-0.6947,-0.6949,-0.6968,-0.6967,-0.6978,-0.6984,-0.6984,-0.6972,-0.6991,-0.6997,-0.7041,-0.707,-0.7014,-0.7017,-0.7156,-0.7159,-0.7162,-0.7206,0,0,0,0,0,0,-0.6897,-0.6907,-0.6929,-0.694,-0.6949,-0.7009,-0.697,-0.6969,-0.6983,-0.698,-0.6994,-0.6995,-0.699,-0.7036,-0.7044,-0.7074,-0.7019,-0.7154,-0.7158,-0.7161,-0.7202,-0.721,-0.7217,0,0,0,0,0,-0.6894,-0.694,-0.693,-0.6938,-0.6976,-0.701,-0.7015,-0.7008,-0.6986,-0.7008,-0.7011,-0.6995,-0.7065,-0.7041,-0.7049,-0.7081,-0.7152,-0.7156,-0.7161,-0.7199,-0.7209,-0.7217,0,0,0,0,0,0,-0.6933,-0.6942,-0.693,-0.6982,-0.6995,-0.7005,-0.7033,-0.7019,-0.704,-0.7036,-0.7026,-0.703,-0.7076,-0.7082,-0.7055,-0.7136,-0.7105,-0.7112,-0.7131,-0.714,-0.7148,-0.7146,-0.7022,0,0,0,0,0,-0.6948,-0.6974,-0.6981,-0.7025,-0.7032,-0.7031,-0.7046,-0.7039,-0.7053,-0.7059,-0.7066,-0.7081,-0.7106,-0.7123,-0.7147,-0.7202,-0.7205,-0.7228,-0.7235,-0.7241,-0.7248,-0.7277,-0.7287,-0.7178,-0.7178,-0.7178,0,0,-0.6978,-0.6986,-0.7004,-0.7033,-0.7043,-0.7071,-0.7037,-0.7068,-0.7089,-0.7064,-0.7106,-0.7111,-0.7127,-0.7176,-0.7198,-0.7183,-0.7278,-0.7247,-0.7252,-0.7255,-0.7283,-0.7293,-0.7302,-0.7182,-0.7181,-0.718,0,0,-0.7048,-0.7056,-0.7094,-0.7104,-0.7119,-0.7118,-0.7127,-0.7139,-0.7141,-0.7182,-0.7164,-0.7188,-0.7233,-0.7245,-0.7257,-0.7329,-0.7315,-0.7337,-0.7378,-0.7406,-0.7415,-0.7422,-0.7449,-0.7458,-0.7343,-0.7343,-0.7343,0,-0.7084,-0.7126,-0.7116,-0.7148,-0.7162,-0.7139,-0.7178,-0.7188,-0.7211,-0.7221,-0.7203,-0.7257,-0.7266,-0.7318,-0.7335,-0.7346,-0.7356,-0.7336,-0.7414,-0.7422,-0.7429,-0.7454,-0.7464,-0.7346,-0.7346,-0.7345,-0.7345,0,-0.7169,-0.7198,-0.7227,-0.7248,-0.7265,-0.73,-0.7296,-0.7314,-0.7305,-0.7306,-0.7348,-0.7357,-0.7383,-0.7394,-0.7386,-0.7445,-0.7434,-0.7416,-0.7384,-0.7442,-0.7465,-0.7475,-0.735,-0.7349,-0.7348,-0.7347,0,0,-0.7266,-0.728,-0.7291,-0.73,-0.7315,-0.7337,-0.7371,-0.7395,-0.7411,-0.7426,-0.7455,-0.7492,-0.7474,-0.7488,-0.7481,-0.7506,-0.7563,-0.7484,-0.7484,-0.7499,-0.7628,-0.7643,-0.7654,-0.7553,-0.7554,-0.7556,-0.7627,0,-0.7337,-0.7396,-0.7387,-0.7444,-0.7471,-0.7449,-0.7479,-0.7491,-0.7492,-0.7515,-0.7516,-0.7542,-0.7517,-0.7525,-0.7548,-0.7551,-0.7589,-0.7546,-0.758,-0.7581,-0.7578,-0.7666,-0.7682,-0.7749,-0.7636,-0.7637,-0.7638,0,-0.7428,-0.7446,-0.7506,-0.7515,-0.7526,-0.7553,-0.7573,-0.7595,-0.7608,-0.7607,-0.7621,-0.7609,-0.7644,-0.761,-0.7657,-0.7628,-0.7641,-0.7644,-0.7647,-0.7651,-0.7614,-0.7673,-0.7769,-0.778,-0.7652,-0.7651,-0.765,0,-0.7494,-0.7533,-0.7573,-0.7582,-0.7593,-0.7613,-0.7619,-0.7629,-0.7644,-0.7662,-0.7671,-0.7693,-0.7706,-0.7723,-0.7717,-0.7694,-0.7765,-0.7732,-0.7766,-0.7766,-0.7783,-0.7782,-0.7884,-0.779,-0.779,-0.779,-0.779,0,-0.7574,-0.7612,-0.7603,-0.7628,-0.7669,-0.7658,-0.7699,-0.7702,-0.7712,-0.7737,-0.7719,-0.7744,-0.7734,-0.7758,-0.7753,-0.7793,-0.7799,-0.7799,-0.7797,-0.7801,-0.7801,-0.7811,-0.7806,-0.7792,-0.7792,-0.7791,-0.7791,0,-0.7655,-0.7651,-0.7693,-0.77,-0.7703,-0.7733,-0.7739,-0.7763,-0.7761,-0.7794,-0.78,-0.7799,-0.7826,-0.7821,-0.7851,-0.7848,-0.7897,-0.789,-0.7893,-0.7892,-0.7926,-0.7923,-0.8038,-0.8053,-0.7949,-0.795,-0.7951,0,-0.7708,-0.7736,-0.7745,-0.776,-0.7768,-0.7793,-0.7807,-0.7797,-0.7813,-0.7829,-0.785,-0.7875,-0.7895,-0.7938,-0.794,-0.7963,-0.7956,-0.7995,-0.7959,-0.7962,-0.7957,-0.7956,-0.7959,-0.8002,-0.8003,-0.8004,-0.8005,0,-0.7801,-0.7797,-0.7818,-0.7839,-0.7856,-0.7872,-0.7886,-0.79,-0.7891,-0.7909,-0.7936,-0.7951,-0.798,-0.8006,-0.8026,-0.8032,-0.8018,-0.8016,-0.8025,-0.803,-0.803,-0.8031,-0.7913,-0.8014,-0.8013,-0.8012,-0.8012,-0.8011,-0.787,-0.7893,-0.7904,-0.7928,-0.7937,-0.795,-0.7972,-0.7973,-0.7995,-0.8018,-0.8011,-0.8041,-0.8052,-0.8078,-0.8087,-0.811,-0.8096,-0.8109,-0.8113,-0.8116,-0.8121,-0.8026,-0.8114,-0.8114,-0.8113,-0.8113,-0.8113,0,-0.7963,-0.7968,-0.799,-0.801,-0.8028,-0.8011,-0.8026,-0.8043,-0.807,-0.8081,-0.81,-0.813,-0.8154,-0.8157,-0.8179,-0.8197,-0.8191,-0.8204,-0.8203,-0.8204,-0.8132,-0.8122,-0.8208,-0.8208,-0.8208,-0.8208,-0.8208,-0.8208,-0.8014,-0.8053,-0.805,-0.8093,-0.8098,-0.8127,-0.8137,-0.8149,-0.8158,-0.8192,-0.8211,-0.8213,-0.822,-0.8243,-0.8264,-0.8264,-0.8273,-0.8289,-0.8287,-0.8219,-0.821,-0.8201,-0.8191,-0.8291,-0.8291,-0.8357,-0.8358,-0.8358]},{"header":{"parameterUnit":"m.s-1","parameterCategory":1,"la1":30.2991,"la2":30.254,"lo1":-89.0895,"lo2":-89.0444,"dy":0.0017,"dx":0.0017,"nx":28,"ny":28,"refTime":"2025-01-01T03:00:00:Z","depth":0,"parameterNumber":3,"parameterNumberName":"V-component_of_WINDS"},"data":[0,0,0,0,0,0,0,0,0,0,0,0,0,0,0,0,0,0,0,0,0,0,0,0,0,0,0,0,0,0,0,0,0,0,0,0,0,0,0,0,0,0,0,0,0,0,0,0,0,0,0,0,0,0,0,0,0,0,-4.4687,-4.4688,0,-4.4816,-4.4817,-4.4819,-4.4773,-4.477,-4.4767,-4.4764,-4.4893,-4.4899,-4.4905,0,0,0,0,0,0,0,0,0,0,0,0,0,-4.4397,-4.4402,-4.4687,-4.4688,-4.469,-4.4816,-4.4817,-4.4819,-4.4773,-4.477,-4.4766,-4.4763,-4.4891,-4.4898,-4.4906,0,0,0,0,0,0,0,0,0,0,0,0,0,-4.4524,-4.4404,-4.4686,-4.4682,-4.4683,-4.4815,-4.4818,-4.482,-4.4774,-4.4769,-4.4765,-4.4761,-4.4889,-4.4898,-4.4907,-4.505,0,0,-4.4935,-4.4939,0,0,0,0,0,0,0,0,-4.4517,-4.4535,-4.4681,-4.4683,-4.4684,-4.4774,-4.4762,-4.4897,-4.4775,-4.4739,-4.4764,-4.4759,-4.4857,-4.4868,-4.4902,-4.5056,-4.5061,-4.4936,-4.4941,-4.4945,-4.4948,0,0,0,0,0,0,0,-4.4508,-4.4529,-4.4738,-4.4683,-4.4685,-4.4673,-4.4686,-4.4788,-4.4821,-4.4742,-4.4739,-4.4755,-4.4857,-4.4893,-4.4904,-4.5063,-4.4935,-4.4943,-4.4949,-4.4953,-4.534,-4.5345,0,0,0,0,0,0,-4.4499,-4.4522,-4.4734,-4.4742,-4.4588,-4.4681,-4.4696,-4.4749,-4.4819,-4.4826,-4.4759,-4.4752,-4.488,-4.4894,-4.4909,-4.5081,-4.4945,-4.4954,-4.4959,-4.5336,-4.5341,-4.5347,0,0,0,0,0,0,-4.4493,-4.4518,-4.4728,-4.4631,-4.4657,-4.4691,-4.4751,-4.4754,-4.4791,-4.4832,-4.4837,-4.479,-4.4877,-4.4896,-4.5015,-4.5085,-4.4958,-4.4966,-4.533,-4.5337,-4.5344,-4.5427,0,0,0,0,0,0,-4.4485,-4.4517,-4.4572,-4.4633,-4.4662,-4.4834,-4.4755,-4.476,-4.4807,-4.48,-4.4863,-4.4869,-4.4875,-4.5002,-4.5024,-4.5095,-4.4973,-4.5324,-4.5333,-4.5342,-4.5418,-4.5436,-4.5451,0,0,0,0,0,-4.4475,-4.459,-4.4575,-4.4601,-4.4733,-4.4838,-4.4855,-4.486,-4.4813,-4.4868,-4.4895,-4.4867,-4.5073,-4.5014,-4.5039,-4.5114,-4.532,-4.5331,-4.5341,-4.541,-4.5432,-4.5451,0,0,0,0,0,0,-4.4536,-4.4598,-4.4582,-4.4721,-4.4775,-4.483,-4.4901,-4.4883,-4.4951,-4.4942,-4.4944,-4.4958,-4.5081,-4.5109,-4.5042,-4.5256,-4.5189,-4.5206,-4.5233,-4.5254,-4.5271,-4.5261,-4.4981,0,0,0,0,0,-4.4565,-4.4647,-4.4696,-4.4813,-4.4841,-4.4867,-4.4913,-4.4912,-4.4967,-4.499,-4.5025,-4.5079,-4.5156,-4.5206,-4.5279,-4.5421,-4.5434,-4.5485,-4.5501,-4.5515,-4.5529,-4.5605,-4.5628,-4.5382,-4.5382,-4.5382,0,0,-4.4627,-4.4671,-4.4722,-4.4827,-4.4868,-4.4952,-4.4886,-4.4977,-4.5039,-4.5003,-4.5119,-4.5146,-4.5206,-4.5338,-4.5397,-4.5365,-4.56,-4.5528,-4.5539,-4.5546,-4.5619,-4.5642,-4.5663,-4.5389,-4.5388,-4.5387,0,0,-4.4783,-4.4825,-4.4927,-4.497,-4.5034,-4.505,-4.5075,-4.5133,-4.5151,-4.5266,-4.5241,-4.5314,-4.5446,-4.549,-4.553,-4.5702,-4.5679,-4.5725,-4.5812,-4.5887,-4.5906,-4.5923,-4.5984,-4.6006,-4.5739,-4.5739,-4.5739,0,-4.4852,-4.4977,-4.4981,-4.5075,-4.5121,-4.5093,-4.5196,-4.5238,-4.5322,-4.5354,-4.5317,-4.5483,-4.5521,-4.5662,-4.5704,-4.5737,-4.5764,-4.5718,-4.5903,-4.592,-4.5937,-4.5995,-4.6018,-4.5745,-4.5744,-4.5743,-4.5743,0,-4.5058,-4.5146,-4.522,-4.5304,-4.5359,-4.5456,-4.5474,-4.5528,-4.5522,-4.5542,-4.5659,-4.5705,-4.5786,-4.5819,-4.5814,-4.5959,-4.5937,-4.5902,-4.5835,-4.5965,-4.602,-4.6042,-4.5752,-4.575,-4.5749,-4.5747,0,0,-4.5257,-4.5341,-4.5368,-4.5406,-4.5475,-4.5542,-4.5637,-4.5718,-4.5765,-4.5823,-4.5903,-4.6016,-4.5983,-4.6028,-4.6028,-4.6093,-4.6226,-4.6049,-4.6051,-4.6081,-4.6388,-4.6415,-4.644,-4.621,-4.6215,-4.6218,-4.6383,0,-4.5418,-4.5588,-4.5594,-4.5748,-4.5829,-4.5803,-4.5886,-4.5937,-4.5957,-4.6027,-4.6049,-4.6129,-4.608,-4.6107,-4.6171,-4.6196,-4.6287,-4.6184,-4.6284,-4.6287,-4.627,-4.6469,-4.6498,-4.6651,-4.6404,-4.6408,-4.641,0,-4.5629,-4.5696,-4.5859,-4.5916,-4.595,-4.6025,-4.6099,-4.6167,-4.6223,-4.6233,-4.6283,-4.6273,-4.6369,-4.6299,-4.6431,-4.6361,-4.6402,-4.642,-4.6426,-4.6436,-4.6357,-4.6484,-4.67,-4.6723,-4.6444,-4.6441,-4.6439,0,-4.5758,-4.5888,-4.6002,-4.6035,-4.6104,-4.6157,-4.6188,-4.624,-4.6288,-4.6353,-4.6384,-4.6458,-4.6499,-4.6556,-4.6565,-4.6513,-4.6698,-4.6628,-4.6708,-4.6708,-4.6748,-4.6746,-4.6974,-4.6774,-4.6774,-4.6774,-4.6773,0,-4.5937,-4.6038,-4.6061,-4.6131,-4.6243,-4.6248,-4.6358,-4.6384,-4.6431,-4.6505,-4.6486,-4.6556,-4.6564,-4.6636,-4.6643,-4.6751,-4.677,-4.678,-4.6781,-4.6782,-4.6781,-4.6809,-4.6799,-4.678,-4.6778,-4.6777,-4.6776,0,-4.61,-4.612,-4.6242,-4.6298,-4.6314,-4.6394,-4.6441,-4.6507,-4.6525,-4.6619,-4.6642,-4.667,-4.6753,-4.6768,-4.6866,-4.6871,-4.7,-4.699,-4.6982,-4.698,-4.7059,-4.7052,-4.7314,-4.7349,-4.7126,-4.7128,-4.713,0,-4.6214,-4.6291,-4.6355,-4.6404,-4.6438,-4.6517,-4.6566,-4.6573,-4.6624,-4.6694,-4.6752,-4.6833,-4.6899,-4.7033,-4.7061,-4.7135,-4.7127,-4.7214,-4.7138,-4.7136,-4.7128,-4.7124,-4.7131,-4.7228,-4.7231,-4.7233,-4.7234,0,-4.6413,-4.6419,-4.6491,-4.6567,-4.6626,-4.6686,-4.6742,-4.6783,-4.6797,-4.6856,-4.6942,-4.6993,-4.7093,-4.7173,-4.7247,-4.7277,-4.7259,-4.7258,-4.728,-4.7282,-4.7274,-4.728,-4.7022,-4.7252,-4.725,-4.7249,-4.7248,-4.7247,-4.6555,-4.6622,-4.6678,-4.6759,-4.6802,-4.6855,-4.692,-4.6947,-4.7019,-4.7102,-4.7101,-4.7194,-4.7247,-4.7345,-4.738,-4.7452,-4.7424,-4.7457,-4.7465,-4.7473,-4.748,-4.7263,-4.7465,-4.7465,-4.7464,-4.7464,-4.7464,0,-4.6754,-4.6788,-4.6863,-4.6943,-4.7006,-4.6983,-4.7044,-4.7098,-4.7181,-4.7233,-4.7298,-4.7396,-4.7474,-4.7508,-4.7585,-4.7636,-4.7629,-4.7655,-4.7652,-4.7659,-4.7501,-4.7474,-4.766,-4.766,-4.766,-4.766,-4.766,-4.766,-4.6865,-4.6977,-4.6989,-4.7122,-4.7156,-4.7248,-4.7285,-4.7333,-4.7375,-4.7485,-4.755,-4.7572,-4.7617,-4.7696,-4.7766,-4.7774,-4.7803,-4.7834,-4.7838,-4.769,-4.767,-4.7651,-4.7626,-4.784,-4.7841,-4.799,-4.7991,-4.7992]}]]